{"data":{"norad_id":61778,"intl_designator":"2024-199AV","name":"SITRO-AIS 39","alt_names":[],"object_type":"PAYLOAD","status":"ACTIVE","operator":null,"country":"CIS","launch_date":"2024-11-04","launch_site_code":"VOSTO","launch_vehicle":null,"mission":null,"orbit_class":"UNKNOWN","rcs_meters":null,"size_class":null,"mass_kg":null,"dimensions":null,"purposes":[],"wikipedia_slug":null,"has_3d_model":false,"image_url":null,"decayed_at":null,"tle_current":{"epoch":"2026-05-25T03:24:10.236096Z","epoch_age_seconds":63039,"freshness":"FRESH","line1":"1 61778U 24199AV  26145.14178514  .00045572  00000+0  66181-3 0  9990","line2":"2 61778  97.2937  20.3736 0007440  30.5929 329.5758 15.55648032130835","mean_motion":15.55648032,"eccentricity":0.000744,"inclination_deg":97.2937,"raan_deg":20.3736,"arg_perigee_deg":30.5929,"mean_anomaly_deg":329.5758,"bstar":0.00066181,"rev_number":13083,"period_min":92.565925606493,"perigee_km":395.22639981658,"apogee_km":405.31266873958,"semimajor_km":6778.4065342781,"source":"CELESTRAK","updated_at":"2026-05-25T13:38:02.561390Z"}}}